Location: Unspecified
(50.1700°N, 6.8600°E)
Time: 01:53:59
(UTC+00:00)

USA 81 - Pass Details

Date: 24 January 2019
Orbit: 784 x 790 km, 85.0° (Epoch: 31 January)

Event Time Altitude Azimuth Distance (km) Brightness Sun altitude
Exits shadow 05:11:18 40° 275° (W) 1,151 4.4 -19.9°
Maximum altitude 05:11:37 40° 284° (WNW) 1,144 4.4 -19.9°
Drops below altitude 10° 05:16:36 10° 354° (N) 2,355 6.4 -19.1°
Sets 05:19:07 0° 2° (N) 3,288 7.2 -18.7°
